* Astronomy

Members Login
Username 
 
Password 
    Remember Me  
Post Info TOPIC: Asteroid 2011 EB7


L

Posts: 131433
Date:
Asteroid 2011 EB7
Permalink  
 


Orbital elements:
2011 EB7 Earth MOID = 0.1603 AU
Epoch 2011 Feb. 8.0 TT = JDT 2455600.5 MPC
M 37.92420 (2000.0) P Q
n 0.39596388 Peri. 263.98393 +0.34369103 -0.93846209
a 1.8366751 Node 165.76957 +0.90715907 +0.32239011
e 0.4193273 Incl. 7.98257 +0.24277335 +0.12390937
P 2.49 H 20.9 G 0.15 U 9

MPEC 2011 - E22


__________________
Page 1 of 1  sorted by
 
Quick Reply

Please log in to post quick replies.



Create your own FREE Forum
Report Abuse
Powered by ActiveBoard